{"data":{"norad_id":60321,"epoch":"2026-09-21T18:56:24.215424Z","epoch_age_seconds":74044,"freshness":"FRESH","line1":"1 60321U 24133W   26264.78916916 -.00002124  00000+0 -51755-4 0  9999","line2":"2 60321  53.1593 103.3887 0001080  64.1897 295.9217 15.34392514121796","mean_motion":15.34392514,"eccentricity":0.000108,"inclination_deg":53.1593,"raan_deg":103.3887,"arg_perigee_deg":64.1897,"mean_anomaly_deg":295.9217,"bstar":-5.1755e-5,"rev_number":12179,"period_min":93.848215946132,"perigee_km":461.98667711822,"apogee_km":463.46430341612,"semimajor_km":6840.8624902672,"source":"CELESTRAK","updated_at":"2026-09-22T09:00:49.218472Z"}}